BPA 1/SL-24 R/B

Satellite information

Favourite Embed

Satellite Type and Status

ROCKET BODYIN ORBIT

Key statistics

Satellite BPA 1/SL-24 R/B at a glance.

Uptime

5443

Days in orbit

Revolutions

≈ 13.7

Per day

Orbit

SSO

Sun Synchronous Orbit

Inclination

98.3

Latest

Satellite identification and parameters

Extended collection of information and parameters for BPA 1/SL-24 R/B.

Object identification

Identified? True

Debris? False

Object name: BPA 1/SL-24 R/B

International designator: 2010-028C

Object number (NORAD): 36600

Object ID (CCSDS): 36600

Country: UKRAINE (UKR)

Current information (Y/N): Y

RCS size: LARGE

Orbital parameters

Period: 104.898 minutes

Inclination: 98.3095 deg

SMA: 7367.831 km

Apoapsis: 1264.577 km

Periapsis: 714.816 km

RAAN: 31.8922 deg

Eccentricy: 0.0373082

Argument of periapsis: 253.2393 deg

Mean anomaly: 160.7717 deg

Mean motion: 13.72755743 rev/day

Mean motion (dot): -0.00000006 rev/day2

B* drag term: 0.000021474 1/REarth

Two-line elements (TLE)

Creation date: May 10, 2025, 2:32 a.m.

Reference frame: TEME

Reference center: EARTH

Epoch: May 9, 2025, 5:16 p.m. UTC

TLE line 0: 0 BPA 1/SL-24 R/B

TLE line 1: 1 36600U 10028C 25129.71992675 -.00000006 00000-0 21474-4 0 9990

TLE line 2: 2 36600 98.3095 31.8922 0373082 253.2393 160.7717 13.72755743746477

Live tracking on map

Real-time ground track for satellite BPA 1/SL-24 R/B.

In-orbit conjunctions

A list of the most updated potential collisions computed for object BPA 1/SL-24 R/B.

Target Orbit TCA Probability of collision Miss distance Type
NOAA 16 DEB SSO 2024-11-17 01:58:51 0.0001164422 332.0 (m) DEBRIS
CZ-4 DEB SSO 2024-11-16 11:47:00 0.0001475056 902.0 (m) DEBRIS
DELTA 1 DEB LEO 2024-11-14 12:06:52 0.0002018417 538.0 (m) DEBRIS

Associated space launch

BPA 1/SL-24 R/B was lifted into orbit during the mission ‘Dnepr 1 | Prisma-Mango, Prisma-Tango, Picard, BPA-1’, on board a Dnepr space rocket.

The launch took place on June 15, 2010, 2:42 p.m. from 370/13.

For more information about the launch, click the button.

Launch to space Dnepr 1 | Prisma-Mango, Prisma-Tango, Picard, BPA-1
Dnepr 1 | Prisma-Mango, Prisma-Tango, Picard, BPA-1

Agency: N/A

Status: Launch Successful

Launch date: June 15, 2010, 2:42 p.m. UTC

Rocket: Dnepr

Launch pad: 370/13

Location: Dombarovskiy, Russian Federation

...

Latest news about this satellite

There are no fresh news available about this satellite. Check back as we update our databases every day.


Newsletter sign-up

Weekly statistics, charts and insights to help you stay on top of the space industry.